FDX12G LTFJ-OJAI

Flight info

Callsign FDX12G
Flight time N/A
Altitude 35000
Route ROXUK UN617 IRGAK UM855 TOMBI DCT SAFTA L324 LAKTO L560 SERMA L550 KARIK B411 ULINA M319 LOSIL DCT QTR
Aircraft MD11/H-SDE1E2E3FGHIJ2J3J4J5M1RWXY/LB1D1

Departure

Time 2026-04-28 15:55
Airport Istanbul Sabiha Gökçen International Airport (LTFJ)

Arrival

Time N/A
Airport Queen Alia International Airport (OJAI)
Time Latitude Longitude Altitude Speed Heading
2026-04-28 14:57 40.90695 29.31843 298 ft 0 kts 334°
2026-04-28 15:08 40.90695 29.31842 328 ft 0 kts 334°
2026-04-28 15:11 40.90403 29.31540 328 ft 0 kts 154°
2026-04-28 15:13 40.90695 29.31843 328 ft 0 kts 334°
2026-04-28 15:16 40.90695 29.31842 328 ft 0 kts 334°
2026-04-28 15:37 40.90693 29.31844 328 ft 2 kts 334°
2026-04-28 15:37 40.90669 29.31857 326 ft 4 kts 346°
2026-04-28 15:37 40.90652 29.31862 323 ft 4 kts 358°
2026-04-28 15:38 40.90619 29.31855 325 ft 4 kts 29°
2026-04-28 15:38 40.90598 29.31835 323 ft 4 kts 53°
2026-04-28 15:38 40.90587 29.31813 324 ft 0 kts 63°
2026-04-28 15:43 40.90588 29.31815 324 ft 1 kts 63°
2026-04-28 15:43 40.90596 29.31835 323 ft 4 kts 63°
2026-04-28 15:44 40.90610 29.31874 326 ft 6 kts 68°
2026-04-28 15:44 40.90603 29.31920 324 ft 5 kts 124°
2026-04-28 15:44 40.90571 29.31946 326 ft 6 kts 152°
2026-04-28 15:44 40.90522 29.31980 325 ft 9 kts 152°
2026-04-28 15:45 40.90488 29.32039 328 ft 7 kts 98°
2026-04-28 15:45 40.90503 29.32109 326 ft 9 kts 65°
2026-04-28 15:45 40.90531 29.32189 326 ft 10 kts 65°
2026-04-28 15:45 40.90565 29.32282 325 ft 12 kts 64°
2026-04-28 15:46 40.90585 29.32386 325 ft 11 kts 98°
2026-04-28 15:46 40.90536 29.32452 327 ft 12 kts 152°
2026-04-28 15:46 40.90454 29.32501 324 ft 15 kts 156°
2026-04-28 15:46 40.90359 29.32567 326 ft 16 kts 151°
2026-04-28 15:47 40.90271 29.32562 325 ft 9 kts 225°
2026-04-28 15:47 40.90248 29.32495 326 ft 9 kts 246°
2026-04-28 15:47 40.90220 29.32410 326 ft 11 kts 246°
2026-04-28 15:47 40.90184 29.32301 326 ft 14 kts 243°
2026-04-28 15:48 40.90136 29.32177 326 ft 16 kts 243°
2026-04-28 15:48 40.90081 29.32032 326 ft 19 kts 243°
2026-04-28 15:48 40.90020 29.31869 324 ft 21 kts 244°
2026-04-28 15:48 40.89955 29.31687 326 ft 23 kts 244°
2026-04-28 15:49 40.89882 29.31487 325 ft 25 kts 244°
2026-04-28 15:49 40.89794 29.31282 325 ft 22 kts 220°
2026-04-28 15:49 40.89716 29.31290 322 ft 10 kts 145°
2026-04-28 15:49 40.89635 29.31362 321 ft 17 kts 149°
2026-04-28 15:50 40.89520 29.31440 317 ft 21 kts 153°
2026-04-28 15:50 40.89375 29.31533 313 ft 25 kts 154°
2026-04-28 15:50 40.89283 29.31544 317 ft 8 kts 223°
2026-04-28 15:50 40.89250 29.31476 317 ft 10 kts 244°
2026-04-28 15:51 40.89216 29.31381 314 ft 13 kts 244°
2026-04-28 15:51 40.89174 29.31264 314 ft 16 kts 244°
2026-04-28 15:51 40.89121 29.31122 315 ft 19 kts 244°
2026-04-28 15:51 40.89055 29.30943 309 ft 24 kts 244°
2026-04-28 15:52 40.88972 29.30718 300 ft 30 kts 244°
2026-04-28 15:52 40.88875 29.30451 288 ft 34 kts 244°
2026-04-28 15:52 40.88779 29.30235 287 ft 13 kts 213°
2026-04-28 15:52 40.88743 29.30235 287 ft 6 kts 167°
2026-04-28 15:53 40.88701 29.30260 289 ft 8 kts 154°
2026-04-28 15:53 40.88643 29.30297 287 ft 11 kts 154°
2026-04-28 15:53 40.88568 29.30346 288 ft 12 kts 151°
2026-04-28 15:53 40.88548 29.30381 289 ft 2 kts 97°
2026-04-28 15:54 40.88547 29.30410 289 ft 4 kts 88°
2026-04-28 15:54 40.88558 29.30450 289 ft 5 kts 66°
2026-04-28 15:54 40.88575 29.30499 294 ft 7 kts 65°
2026-04-28 15:54 40.88631 29.30653 293 ft 54 kts 64°
2026-04-28 15:55 40.88929 29.31451 315 ft 136 kts 63°
2026-04-28 15:55 40.89423 29.32834 466 ft 184 kts 63°
2026-04-28 15:55 40.89949 29.34380 1448 ft 179 kts 65°
2026-04-28 15:55 40.90133 29.35905 2570 ft 176 kts 101°
2026-04-28 15:56 40.89420 29.37211 3304 ft 187 kts 148°
2026-04-28 15:56 40.88073 29.37601 3724 ft 220 kts 188°
2026-04-28 15:56 40.86651 29.36667 3944 ft 244 kts 227°
2026-04-28 15:56 40.85901 29.34754 4239 ft 253 kts 264°
2026-04-28 15:57 40.86051 29.32836 4843 ft 249 kts 292°
2026-04-28 15:57 40.86613 29.31506 5393 ft 246 kts 312°
2026-04-28 15:57 40.88512 29.29966 6398 ft 247 kts 350°
2026-04-28 15:57 40.90219 29.30076 7153 ft 250 kts 17°
2026-04-28 15:58 40.91275 29.30788 7586 ft 258 kts 37°
2026-04-28 15:58 40.92594 29.33437 8460 ft 272 kts 72°
2026-04-28 15:58 40.92688 29.35952 9149 ft 281 kts 101°
2026-04-28 15:58 40.92210 29.37578 9603 ft 284 kts 122°
2026-04-28 15:59 40.91063 29.39588 10237 ft 289 kts 130°
2026-04-28 15:59 40.89785 29.41636 10831 ft 293 kts 135°
2026-04-28 15:59 40.88311 29.43496 11545 ft 296 kts 138°
2026-04-28 15:59 40.86780 29.45344 12264 ft 298 kts 138°
2026-04-28 16:00 40.85257 29.47229 12999 ft 302 kts 137°
2026-04-28 16:00 40.83645 29.49014 13671 ft 304 kts 149°
2026-04-28 16:00 40.81747 29.50440 13892 ft 326 kts 155°
2026-04-28 16:00 40.79632 29.51794 14024 ft 350 kts 156°
2026-04-28 16:01 40.77399 29.53306 14141 ft 372 kts 147°
2026-04-28 16:01 40.75420 29.55639 14335 ft 391 kts 132°
2026-04-28 16:01 40.73703 29.58449 14936 ft 396 kts 127°
2026-04-28 16:01 40.72097 29.61364 15814 ft 388 kts 126°
2026-04-28 16:02 40.70503 29.64268 16446 ft 393 kts 128°
2026-04-28 16:02 40.68605 29.66867 17071 ft 395 kts 143°
2026-04-28 16:02 40.66197 29.68593 17692 ft 397 kts 162°
2026-04-28 16:02 40.63473 29.69245 18253 ft 401 kts 177°
2026-04-28 16:03 40.60675 29.69279 18831 ft 405 kts 182°
2026-04-28 16:03 40.57846 29.69121 19402 ft 408 kts 183°
2026-04-28 16:03 40.54994 29.68951 19967 ft 412 kts 182°
2026-04-28 16:03 40.52116 29.68824 20514 ft 415 kts 181°
2026-04-28 16:04 40.49216 29.68746 21051 ft 419 kts 181°
2026-04-28 16:04 40.46291 29.68702 21576 ft 422 kts 180°
2026-04-28 16:04 40.43344 29.68680 22089 ft 426 kts 180°
2026-04-28 16:04 40.40374 29.68669 22589 ft 429 kts 180°
2026-04-28 16:05 40.37378 29.68662 23080 ft 432 kts 180°
2026-04-28 16:05 40.34351 29.68657 23561 ft 435 kts 180°
2026-04-28 16:05 40.31318 29.68651 24031 ft 439 kts 180°
2026-04-28 16:05 40.28255 29.68645 24500 ft 442 kts 180°
2026-04-28 16:06 40.25165 29.68638 24937 ft 445 kts 180°
2026-04-28 16:06 40.22062 29.68630 25358 ft 448 kts 180°
2026-04-28 16:06 40.18937 29.68628 25794 ft 451 kts 179°
2026-04-28 16:06 40.15792 29.68776 26206 ft 454 kts 176°
2026-04-28 16:07 40.12636 29.69080 26614 ft 457 kts 175°
2026-04-28 16:07 40.09455 29.69454 26998 ft 460 kts 175°
2026-04-28 16:07 40.03057 29.70246 27767 ft 465 kts 175°
2026-04-28 16:08 39.99822 29.70635 28133 ft 468 kts 175°
2026-04-28 16:08 39.96569 29.71018 28492 ft 470 kts 175°
2026-04-28 16:08 39.93304 29.71397 28852 ft 473 kts 175°
2026-04-28 16:09 39.86804 29.72859 29500 ft 478 kts 161°
2026-04-28 16:09 39.83693 29.74411 29806 ft 481 kts 157°
2026-04-28 16:09 39.80626 29.76204 30143 ft 483 kts 155°
2026-04-28 16:10 39.74503 29.79918 30811 ft 488 kts 155°
2026-04-28 16:10 39.71407 29.81746 31139 ft 489 kts 156°
2026-04-28 16:10 39.65186 29.85313 31904 ft 488 kts 156°
2026-04-28 16:11 39.58977 29.88810 32612 ft 486 kts 157°
2026-04-28 16:11 39.52786 29.92287 33287 ft 485 kts 157°
2026-04-28 16:12 39.46604 29.95770 33908 ft 483 kts 156°
2026-04-28 16:12 39.43526 29.97508 34198 ft 483 kts 156°
2026-04-28 16:13 39.37374 30.00984 34752 ft 482 kts 156°
2026-04-28 16:13 39.34304 30.02717 34948 ft 483 kts 156°
2026-04-28 16:13 39.28140 30.06190 35304 ft 483 kts 156°
2026-04-28 16:14 39.21976 30.09657 35712 ft 482 kts 156°
2026-04-28 16:14 39.15811 30.13116 35881 ft 485 kts 156°
2026-04-28 16:15 39.09639 30.16574 35879 ft 482 kts 156°
2026-04-28 16:15 39.03495 30.20013 35880 ft 482 kts 156°
2026-04-28 16:16 38.94272 30.25190 35880 ft 482 kts 156°
2026-04-28 16:17 38.85008 30.30386 35881 ft 482 kts 156°
2026-04-28 16:17 38.78903 30.33803 35880 ft 482 kts 156°
2026-04-28 16:18 38.72747 30.37241 35880 ft 482 kts 156°
2026-04-28 16:18 38.66559 30.40690 35880 ft 482 kts 156°
2026-04-28 16:19 38.60405 30.44113 35880 ft 482 kts 156°
2026-04-28 16:19 38.54251 30.47531 35880 ft 482 kts 157°
2026-04-28 16:20 38.48101 30.50939 35880 ft 481 kts 157°
2026-04-28 16:20 38.41955 30.54339 35879 ft 481 kts 157°
2026-04-28 16:21 38.35808 30.57734 35880 ft 481 kts 157°
2026-04-28 16:21 38.29641 30.61062 35866 ft 481 kts 161°
2026-04-28 16:22 38.23123 30.62820 35882 ft 480 kts 174°
2026-04-28 16:22 38.16457 30.63520 35879 ft 481 kts 176°
2026-04-28 16:23 38.09785 30.64223 35879 ft 481 kts 175°
2026-04-28 16:23 38.03131 30.65052 35880 ft 481 kts 174°
2026-04-28 16:24 37.96482 30.65949 35880 ft 481 kts 174°
2026-04-28 16:24 37.89831 30.66911 35880 ft 481 kts 174°
2026-04-28 16:25 37.83177 30.67787 35881 ft 481 kts 174°
2026-04-28 16:25 37.76522 30.68608 35881 ft 481 kts 174°
2026-04-28 16:26 37.69858 30.69425 35881 ft 481 kts 174°
2026-04-28 16:26 37.63244 30.70241 35880 ft 481 kts 174°
2026-04-28 16:27 37.56548 30.71100 35880 ft 481 kts 174°
2026-04-28 16:28 37.46620 30.72543 35879 ft 481 kts 173°
2026-04-28 16:28 37.39927 30.73501 35880 ft 481 kts 174°
2026-04-28 16:29 37.29947 30.74764 35880 ft 481 kts 174°
2026-04-28 16:30 37.19961 30.76007 35880 ft 481 kts 174°
2026-04-28 16:30 37.13303 30.76841 35880 ft 481 kts 174°
2026-04-28 16:31 37.06645 30.77674 35879 ft 481 kts 174°
2026-04-28 16:31 36.99989 30.78505 35880 ft 481 kts 174°
2026-04-28 16:32 36.93375 30.79314 35881 ft 481 kts 175°
2026-04-28 16:32 36.83360 30.79827 35879 ft 481 kts 179°
2026-04-28 16:33 36.78882 30.79948 35880 ft 481 kts 179°
2026-04-28 16:33 36.69938 30.80224 35880 ft 481 kts 179°
2026-04-28 16:34 36.63295 30.80453 35881 ft 481 kts 179°
2026-04-28 16:34 36.56615 30.80686 35880 ft 481 kts 179°
2026-04-28 16:35 36.49932 30.80919 35881 ft 481 kts 179°
2026-04-28 16:35 36.43257 30.81150 35879 ft 481 kts 179°
2026-04-28 16:36 36.36696 30.81372 35880 ft 481 kts 179°
2026-04-28 16:36 36.30012 30.81596 35879 ft 481 kts 179°
2026-04-28 16:37 36.24408 30.81784 35881 ft 481 kts 179°
2026-04-28 16:38 36.14392 30.82119 35881 ft 481 kts 179°
2026-04-28 16:38 36.07708 30.82342 35881 ft 481 kts 179°
2026-04-28 16:39 36.01059 30.83082 35882 ft 481 kts 167°
2026-04-28 16:39 35.94685 30.85402 35881 ft 481 kts 161°
2026-04-28 16:40 35.88348 30.88058 35879 ft 481 kts 162°
2026-04-28 16:40 35.81937 30.90631 35880 ft 481 kts 162°
2026-04-28 16:41 35.75593 30.93089 35880 ft 481 kts 163°
2026-04-28 16:41 35.69203 30.95541 35880 ft 481 kts 163°
2026-04-28 16:42 35.62807 30.97994 35880 ft 481 kts 163°
2026-04-28 16:42 35.56376 31.00459 35880 ft 481 kts 163°
2026-04-28 16:43 35.50024 31.02890 35880 ft 481 kts 163°
2026-04-28 16:43 35.43632 31.05333 35880 ft 481 kts 163°
2026-04-28 16:44 35.37193 31.07790 35880 ft 481 kts 163°
2026-04-28 16:44 35.30841 31.10209 35880 ft 481 kts 163°
2026-04-28 16:45 35.24452 31.12639 35881 ft 481 kts 163°
2026-04-28 16:45 35.18011 31.15075 35880 ft 481 kts 163°
2026-04-28 16:46 35.11657 31.17475 35880 ft 481 kts 163°
2026-04-28 16:46 35.05217 31.19909 35880 ft 481 kts 163°
2026-04-28 16:47 34.98860 31.22310 35880 ft 481 kts 163°
2026-04-28 16:47 34.92464 31.24723 35880 ft 481 kts 163°
2026-04-28 16:48 34.86076 31.27128 35880 ft 481 kts 163°
2026-04-28 16:48 34.79665 31.29538 35881 ft 481 kts 163°
2026-04-28 16:49 34.73271 31.31937 35880 ft 481 kts 163°
2026-04-28 16:49 34.66818 31.34355 35880 ft 481 kts 163°
2026-04-28 16:50 34.60432 31.36744 35880 ft 481 kts 163°
2026-04-28 16:50 34.54074 31.39118 35879 ft 481 kts 163°
2026-04-28 16:51 34.47632 31.41520 35880 ft 481 kts 163°
2026-04-28 16:51 34.41233 31.43898 35880 ft 481 kts 163°
2026-04-28 16:52 34.34871 31.46252 35881 ft 481 kts 163°
2026-04-28 16:52 34.28471 31.48623 35880 ft 481 kts 163°
2026-04-28 16:53 34.22070 31.50994 35880 ft 481 kts 163°
2026-04-28 16:53 34.15671 31.53361 35881 ft 481 kts 163°
2026-04-28 16:54 34.09261 31.55728 35880 ft 481 kts 163°
2026-04-28 16:54 34.02863 31.58087 35880 ft 481 kts 163°
2026-04-28 16:55 33.96453 31.60447 35880 ft 481 kts 163°
2026-04-28 16:55 33.90054 31.62798 35880 ft 481 kts 163°
2026-04-28 16:56 33.83652 31.65148 35880 ft 481 kts 163°
2026-04-28 16:56 33.77240 31.67489 35880 ft 481 kts 163°
2026-04-28 16:57 33.70830 31.69815 35880 ft 481 kts 163°
2026-04-28 16:57 33.64415 31.72142 35880 ft 481 kts 163°
2026-04-28 16:58 33.58005 31.74466 35880 ft 481 kts 163°
2026-04-28 16:58 33.51592 31.76789 35880 ft 481 kts 163°
2026-04-28 16:59 33.45182 31.79107 35880 ft 481 kts 163°
2026-04-28 16:59 33.38776 31.81425 35880 ft 481 kts 163°
2026-04-28 17:00 33.32369 31.83744 35880 ft 481 kts 163°
2026-04-28 17:00 33.25957 31.86062 35880 ft 481 kts 163°
2026-04-28 17:01 33.19548 31.88376 35881 ft 481 kts 163°
2026-04-28 17:01 33.13140 31.90685 35880 ft 481 kts 163°
2026-04-28 17:02 33.06733 31.92991 35880 ft 481 kts 163°
2026-04-28 17:02 33.00321 31.95295 35880 ft 481 kts 163°
2026-04-28 17:03 32.90704 31.98743 35880 ft 481 kts 163°
2026-04-28 17:03 32.84288 32.01040 35879 ft 481 kts 163°
2026-04-28 17:04 32.74676 32.04474 35880 ft 481 kts 163°
2026-04-28 17:05 32.65054 32.07910 35881 ft 481 kts 162°
2026-04-28 17:06 32.56330 32.13665 35880 ft 482 kts 143°
2026-04-28 17:06 32.48339 32.20910 35879 ft 482 kts 143°
2026-04-28 17:07 32.42929 32.25610 35880 ft 482 kts 144°
2026-04-28 17:07 32.37487 32.30242 35881 ft 482 kts 144°
2026-04-28 17:08 32.32036 32.34862 35880 ft 482 kts 144°
2026-04-28 17:08 32.26586 32.39480 35880 ft 482 kts 144°
2026-04-28 17:09 32.21135 32.44096 35880 ft 482 kts 144°
2026-04-28 17:09 32.15685 32.48700 35880 ft 482 kts 144°
2026-04-28 17:10 32.10222 32.53295 35880 ft 482 kts 144°
2026-04-28 17:10 32.04766 32.57885 35880 ft 482 kts 144°
2026-04-28 17:11 31.99306 32.62476 35880 ft 482 kts 144°
2026-04-28 17:11 31.93850 32.67059 35880 ft 482 kts 144°
2026-04-28 17:12 31.88386 32.71642 35880 ft 482 kts 144°
2026-04-28 17:12 31.82921 32.76218 35881 ft 482 kts 145°
2026-04-28 17:13 31.77456 32.80787 35880 ft 482 kts 145°
2026-04-28 17:13 31.71992 32.85349 35881 ft 482 kts 145°
2026-04-28 17:14 31.67445 32.89141 35880 ft 482 kts 145°